Weather History for Sulphur, LA

Change the Weather History Date:

Sunday, October 7, 2012

  Actual Average (KLCH) Record (KLCH)
Temperature  
Mean Temperature 61 °F 73 °F  
Max Temperature 71 °F 83 °F 95 °F (1911)
Min Temperature 51 °F 62 °F 45 °F (1964)
Degree Days  
Heating Degree Days 4 0  
Month to date heating degree days 0  
Since 1 July heating degree days 1  
Cooling Degree Days 0 8  
Month to date cooling degree days 62  
Year to date cooling degree days 2602  
Growing Degree Days 11 (Base 50)    
Moisture  
Dew Point 52 °F    
Average Humidity 74    
Maximum Humidity 94    
Minimum Humidity 53    
Precipitation  
Precipitation 0.00 in 0.13 in 2.40 in (1984)
Month to date precipitation 0.97  
Year to date precipitation 44.45  
Snow  
Snow 0.00 in 0.00 in 0.00 in ()
Month to date snowfall 0.0  
Since 1 July snowfall 0.0  
Since 1 September snowfall 0.0  
Snow Depth -    
Sea Level Pressure  
Sea Level Pressure 30.12 in    
Wind  
Wind Speed 11 mph (North)    
Max Wind Speed 15 mph    
Max Gust Speed 22 mph    
Visibility 10 miles    
Events      
T = Trace of Precipitation, MM = Missing Value Source: NWS Daily Summary

Daily Weather History Graph

Daily Weather History Graph

Search for Another Location

Airport:

Trip Planner

Search our weather history database for the weather conditions in past years. The results will help you decide how hot, cold, wet, or windy it might be!

Date:

Astronomy

Oct. 07, 2012 Rise Set
Actual Time 7:10 AM CDT 6:51 PM CDT
Civil Twilight 6:46 AM CDT 7:15 PM CDT
Nautical Twilight 6:19 AM CDT 7:42 PM CDT
Astronomical Twilight 5:51 AM CDT 8:10 PM CDT
Moon No Moon Rise 1:31 PM CDT (10/7)
Length of Visible Light 12h 28m
Length of Day
11h 40m
Waning Gibbous, 56% of the Moon is Illuminated
Oct 7
Waning Gibbous
Oct 8
Last Quarter
Oct 15
New
Oct 21
First Quarter
Oct 29
Full

Hourly Weather History & Observations

Time (CDT) Temp. Dew Point Humidity Pressure Visibility Wind Dir Wind Speed Gust Speed Precip Events Conditions
12:15 AM 60.8 °F 55.4 °F 82% 30.09 in 10.0 mi North 13.8 mph 19.6 mph N/A   Overcast
12:35 AM 59.0 °F 55.4 °F 88% 30.09 in 10.0 mi North 13.8 mph 21.9 mph N/A   Overcast
12:55 AM 59.0 °F 53.6 °F 82% 30.09 in 10.0 mi North 12.7 mph 21.9 mph N/A   Overcast
1:15 AM 59.0 °F 53.6 °F 82% 30.09 in 10.0 mi North 11.5 mph 18.4 mph N/A   Overcast
1:35 AM 57.2 °F 53.6 °F 88% 30.10 in 10.0 mi North 11.5 mph 16.1 mph N/A   Overcast
1:55 AM 57.2 °F 53.6 °F 88% 30.10 in 10.0 mi North 9.2 mph - N/A   Overcast
2:15 AM 57.2 °F 53.6 °F 88% 30.11 in 10.0 mi North 9.2 mph - N/A   Overcast
2:35 AM 55.4 °F 53.6 °F 94% 30.11 in 10.0 mi North 9.2 mph - N/A   Overcast
2:55 AM 55.4 °F 53.6 °F 94% 30.11 in 10.0 mi North 11.5 mph 17.3 mph N/A   Overcast
3:15 AM 55.4 °F 51.8 °F 88% 30.11 in 10.0 mi North 10.4 mph 19.6 mph N/A   Overcast
3:35 AM 55.4 °F 51.8 °F 88% 30.11 in 10.0 mi North 13.8 mph 18.4 mph N/A   Overcast
3:55 AM 55.4 °F 51.8 °F 88% 30.10 in 10.0 mi North 15.0 mph 18.4 mph N/A   Overcast
4:15 AM 55.4 °F 51.8 °F 88% 30.11 in 10.0 mi North 11.5 mph 18.4 mph N/A   Overcast
4:35 AM 53.6 °F 51.8 °F 94% 30.11 in 10.0 mi North 13.8 mph 21.9 mph N/A   Overcast
4:55 AM 53.6 °F 50.0 °F 88% 30.12 in 10.0 mi North 9.2 mph - N/A   Overcast
5:15 AM 53.6 °F 50.0 °F 88% 30.12 in 10.0 mi North 10.4 mph 16.1 mph N/A   Overcast
5:35 AM 53.6 °F 50.0 °F 88% 30.12 in 10.0 mi North 12.7 mph 18.4 mph N/A   Overcast
5:55 AM 53.6 °F 50.0 °F 88% 30.13 in 10.0 mi North 9.2 mph - N/A   Overcast
6:15 AM 53.6 °F 50.0 °F 88% 30.14 in 10.0 mi North 10.4 mph - N/A   Mostly Cloudy
6:55 AM 53.6 °F 48.2 °F 82% 30.14 in 10.0 mi North 11.5 mph 19.6 mph N/A   Overcast
7:15 AM 51.8 °F 48.2 °F 88% 30.15 in 10.0 mi North 11.5 mph - N/A   Overcast
7:35 AM 53.6 °F 48.2 °F 82% 30.16 in 10.0 mi North 12.7 mph 19.6 mph N/A   Overcast
7:55 AM 53.6 °F 48.2 °F 82% 30.17 in 10.0 mi North 9.2 mph - N/A   Overcast
8:15 AM 53.6 °F 48.2 °F 82% 30.17 in 10.0 mi North 11.5 mph 17.3 mph N/A   Overcast
8:35 AM 53.6 °F 48.2 °F 82% 30.18 in 10.0 mi North 13.8 mph - N/A   Overcast
8:55 AM 53.6 °F 48.2 °F 82% 30.18 in 10.0 mi North 9.2 mph 19.6 mph N/A   Overcast
9:15 AM 55.4 °F 50.0 °F 82% 30.19 in 10.0 mi North 11.5 mph - N/A   Mostly Cloudy
9:35 AM 57.2 °F 48.2 °F 72% 30.19 in 10.0 mi North 10.4 mph - N/A   Scattered Clouds
9:55 AM 59.0 °F 50.0 °F 72% 30.19 in 10.0 mi North 11.5 mph 18.4 mph N/A   Clear
10:15 AM 59.0 °F 50.0 °F 72% 30.18 in 10.0 mi North 12.7 mph 18.4 mph N/A   Clear
10:35 AM 60.8 °F 50.0 °F 68% 30.18 in 10.0 mi North 13.8 mph 19.6 mph N/A   Clear
10:55 AM 60.8 °F 50.0 °F 68% 30.18 in 10.0 mi North 9.2 mph 19.6 mph N/A   Clear
11:15 AM 60.8 °F 50.0 °F 68% 30.18 in 10.0 mi North 12.7 mph 19.6 mph N/A   Clear
11:35 AM 62.6 °F 51.8 °F 68% 30.17 in 10.0 mi North 10.4 mph 17.3 mph N/A   Clear
11:55 AM 62.6 °F 51.8 °F 68% 30.17 in 10.0 mi North 12.7 mph 18.4 mph N/A   Clear
12:35 PM 64.4 °F 51.8 °F 64% 30.15 in 10.0 mi North 12.7 mph 18.4 mph N/A   Clear
12:55 PM 64.4 °F 51.8 °F 64% 30.15 in 10.0 mi North 9.2 mph 18.4 mph N/A   Clear
1:15 PM 66.2 °F 51.8 °F 60% 30.14 in 10.0 mi North 10.4 mph 18.4 mph N/A   Clear
1:35 PM 68.0 °F 53.6 °F 60% 30.12 in 10.0 mi North 10.4 mph - N/A   Clear
1:55 PM 68.0 °F 53.6 °F 60% 30.10 in 10.0 mi North 10.4 mph 18.4 mph N/A   Clear
2:15 PM 69.8 °F 53.6 °F 56% 30.10 in 10.0 mi NNE 8.1 mph - N/A   Clear
2:35 PM 69.8 °F 53.6 °F 56% 30.09 in 10.0 mi NNE 10.4 mph 16.1 mph N/A   Clear
2:55 PM 69.8 °F 53.6 °F 56% 30.08 in 10.0 mi North 11.5 mph 17.3 mph N/A   Clear
3:15 PM 69.8 °F 53.6 °F 56% 30.08 in 10.0 mi NE 8.1 mph - N/A   Clear
3:35 PM 71.6 °F 53.6 °F 53% 30.07 in 10.0 mi North 11.5 mph - N/A   Clear
3:55 PM 69.8 °F 53.6 °F 56% 30.07 in 10.0 mi North 6.9 mph 16.1 mph N/A   Clear
4:15 PM 71.6 °F 53.6 °F 53% 30.07 in 10.0 mi North 11.5 mph 18.4 mph N/A   Clear
4:35 PM 71.6 °F 53.6 °F 53% 30.07 in 10.0 mi North 6.9 mph - N/A   Clear
4:55 PM 69.8 °F 53.6 °F 56% 30.07 in 10.0 mi North 9.2 mph - N/A   Clear
5:15 PM 69.8 °F 53.6 °F 56% 30.07 in 10.0 mi North 6.9 mph - N/A   Clear
5:35 PM 69.8 °F 53.6 °F 56% 30.07 in 10.0 mi North 6.9 mph - N/A   Clear
5:55 PM 68.0 °F 53.6 °F 60% 30.07 in 10.0 mi North 6.9 mph - N/A   Clear
6:15 PM 66.2 °F 53.6 °F 64% 30.08 in 10.0 mi North 6.9 mph 16.1 mph N/A   Scattered Clouds
6:35 PM 64.4 °F 53.6 °F 68% 30.08 in 10.0 mi North 11.5 mph 19.6 mph N/A   Clear
6:55 PM 62.6 °F 53.6 °F 72% 30.09 in 10.0 mi North 10.4 mph 17.3 mph N/A   Clear
7:15 PM 62.6 °F 51.8 °F 68% 30.09 in 10.0 mi North 9.2 mph - N/A   Clear
7:35 PM 60.8 °F 51.8 °F 72% 30.10 in 10.0 mi North 12.7 mph - N/A   Clear
7:55 PM 60.8 °F 51.8 °F 72% 30.11 in 10.0 mi North 9.2 mph - N/A   Clear
8:15 PM 60.8 °F 51.8 °F 72% 30.12 in 10.0 mi North 6.9 mph - N/A   Clear
8:55 PM 60.8 °F 51.8 °F 72% 30.13 in 10.0 mi North 8.1 mph - N/A   Clear
9:15 PM 60.8 °F 51.8 °F 72% 30.14 in 10.0 mi North 6.9 mph - N/A   Clear
9:35 PM 60.8 °F 51.8 °F 72% 30.14 in 10.0 mi North 10.4 mph 16.1 mph N/A   Clear
9:55 PM 60.8 °F 51.8 °F 72% 30.15 in 10.0 mi North 8.1 mph - N/A   Mostly Cloudy
10:15 PM 60.8 °F 51.8 °F 72% 30.15 in 10.0 mi North 5.8 mph - N/A   Overcast
10:35 PM 59.0 °F 51.8 °F 77% 30.15 in 10.0 mi North 8.1 mph - N/A   Mostly Cloudy
10:55 PM 59.0 °F 51.8 °F 77% 30.16 in 10.0 mi NNW 5.8 mph - N/A   Scattered Clouds
11:15 PM 55.4 °F 51.8 °F 88% 30.17 in 10.0 mi North 8.1 mph - N/A   Clear
11:35 PM 55.4 °F 51.8 °F 88% 30.17 in 10.0 mi NNW 4.6 mph - N/A   Clear
11:55 PM 55.4 °F 51.8 °F 88% 30.17 in 10.0 mi North 5.8 mph - N/A   Mostly Cloudy